Regional Weather Roundup
Issued by NWS

Home | Current Version | Previous Version | Graphics & Text | Print | Product List | Glossary On
Versions: 1 2 3 4 5 6 7 8 9 10 11 12 13 14 15 16 17 18 19 20 21 22 23 24 25 26 27 28 29 30 31 32 33 34 35 36 37 38 39 40 41 42 43 44 45 46 47 48 49 50
000
ASUS45 KCYS 050410
RWRWY

WYOMING REGIONAL WEATHER ROUNDUP
NATIONAL WEATHER SERVICE CHEYENNE WY
1000 PM MDT MON MAY 04 2015

NOTE:  "FAIR" INDICATES FEW OR NO CLOUDS BELOW 12,000 FEET
WITH NO SIGNIFICANT WEATHER AND/OR OBSTRUCTIONS TO VISIBILITY.

WYZ001-050500-
YELLOWSTONE NATIONAL PARK

CITY           SKY/WX    TMP DP  RH WIND       PRES   REMARKS
LK YELLOWSTONE   N/A     40  33  76 NW3       30.07R
W YELLOWSTONE  NOT AVBL

$$
WYZ002>013-054>058-071-098>099-050500-
NORTHERN WYOMING

CITY           SKY/WX    TMP DP  RH WIND       PRES   REMARKS
JACKSON        FAIR      48  37  66 CALM      29.99R
CODY           FAIR      55  43  62 S5        29.94R
GREYBULL       FAIR      60  38  43 W3        29.88R
WORLAND        MOCLDY    57  40  52 S14       29.91R
SHERIDAN       FAIR      58  43  57 S18G25    29.91F
BUFFALO        FAIR      52  41  66 SE13      30.02S
GILLETTE       FAIR      47  34  60 S18G25    30.02S
HULETT         FAIR      50  36  57 S7        30.05S
NEWCASTLE      CLOUDY    52  28  40 SE21G28   30.09S

$$
WYZ014>020-022>026-101>103-050500-
CENTRAL WYOMING

CITY           SKY/WX    TMP DP  RH WIND       PRES   REMARKS
BIG PINEY      FAIR      49  39  68 S9        30.05R
PINEDALE       CLOUDY    50  37  62 S13G18    30.05R
DUBOIS         FAIR      46  36  66 S3        30.05R
LANDER         FAIR      56  39  53 SW15G22   29.97R
RIVERTON       CLOUDY    57  42  57 S20       30.00R
CASPER         FAIR      49  43  80 E3        30.01R
DOUGLAS        FAIR      50  40  68 SE15      30.06R

$$
WYZ021-027>030-104>119-050500-
SOUTHERN WYOMING

CITY           SKY/WX    TMP DP  RH WIND       PRES   REMARKS
EVANSTON       MOCLDY    48  38  68 E5        30.03R
KEMMERER       FAIR      46  36  66 E5        30.04S
FORT BRIDGER   PTCLDY    46  43  87 SE7       30.07R
ROCK SPRINGS   MOCLDY    50  38  63 N5        30.05R
DIXON          FAIR      46  38  76 NE9       30.06S
RAWLINS        FAIR      47  39  74 NE8       30.06R
SARATOGA       MOCLDY    45  41  87 S8        30.07S
LARAMIE        MOCLDY    44  41  89 SE13      30.10R
CHEYENNE       CLOUDY    45  42  89 SE17      30.12R
TORRINGTON     FAIR      48  37  65 SE10      30.09R
PINE BLUFFS    CLOUDY    45  43  93 SE8       30.14R

$$


USA.gov is the U.S. government's official web portal to all federal, state and local government web resources and services.